| time (UTC) | temp C | wind direction | speed KPH | gust KPH | rain 1hr cm | rain 24hr cm | rain mn cm | humidity % | barometer mb |
| 20260506013012 | 8 | 0 | 0.0 | 0.0 | 0.15 | 0.97 | 0.43 | 10 | 1007.3 |
| 20260506012012 | 8 | 0 | 0.0 | 0.0 | 0.15 | 0.94 | 0.43 | 10 | 1007.3 |
| 20260506011012 | 8 | 0 | 0.0 | 0.0 | 0.18 | 0.91 | 0.41 | 10 | 1007.3 |
| 20260506005012 | 9 | 0 | 0.0 | 0.0 | 0.15 | 0.86 | 0.33 | 10 | 1007.4 |
| 20260506004012 | 9 | 0 | 0.0 | 0.0 | 0.15 | 0.84 | 0.33 | 10 | 1007.5 |
| 20260506003013 | 9 | 0 | 0.0 | 0.0 | 0.18 | 0.81 | 0.30 | 10 | 1007.5 |
| 20260506002012 | 9 | 0 | 0.0 | 0.0 | 0.18 | 0.79 | 0.28 | 10 | 1007.6 |
| 20260506001012 | 9 | 0 | 0.0 | 0.0 | 0.18 | 0.79 | 0.25 | 10 | 1007.7 |
| 20260506000014 | 9 | 0 | 0.0 | 0.0 | 0.15 | 0.74 | 0.23 | 10 | 1007.8 |
| 20260505235015 | 9 | 0 | 0.0 | 0.0 | 0.15 | 0.71 | 0.20 | 10 | 1007.8 |
| 20260505234014 | 9 | 0 | 0.0 | 0.0 | 0.15 | 0.71 | 0.18 | 10 | 1007.9 |
| 20260505233014 | 9 | 0 | 0.0 | 0.0 | 0.13 | 0.69 | 0.15 | 10 | 1007.9 |
| 20260505232014 | 9 | 0 | 0.0 | 0.0 | 0.10 | 0.64 | 0.13 | 10 | 1008.0 |
| 20260505231014 | 9 | 0 | 0.0 | 0.0 | 0.08 | 0.61 | 0.10 | 10 | 1008.0 |
| 20260505230016 | 9 | 0 | 0.0 | 0.0 | 0.08 | 0.61 | 0.08 | 10 | 1008.1 |
| 20260505225015 | 9 | 0 | 0.0 | 0.0 | 0.05 | 0.58 | 0.05 | 10 | 1008.2 |
| 20260505224014 | 9 | 0 | 0.0 | 0.0 | 0.08 | 0.58 | 0.05 | 10 | 1008.2 |
| 20260505223015 | 9 | 0 | 0.0 | 0.0 | 0.08 | 0.56 | 0.05 | 10 | 1008.2 |
| 20260505222014 | 9 | 0 | 0.0 | 0.0 | 0.10 | 0.56 | 0.05 | 10 | 1008.2 |
| 20260505221014 | 9 | 0 | 0.0 | 0.0 | 0.10 | 0.53 | 0.03 | 10 | 1008.3 |
| 20260505220013 | 9 | 0 | 0.0 | 0.0 | 0.13 | 0.53 | 0.03 | 10 | 1008.3 |
| 20260505215015 | 9 | 0 | 0.0 | 0.0 | 0.13 | 0.51 | 0.51 | 10 | 1008.4 |
| 20260505214015 | 9 | 0 | 0.0 | 0.0 | 0.15 | 0.51 | 0.51 | 10 | 1008.4 |
| 20260505213016 | 9 | 0 | 0.0 | 0.0 | 0.15 | 0.51 | 0.51 | 10 | 1008.5 |
| 20260505212016 | 9 | 0 | 0.0 | 0.0 | 0.15 | 0.48 | 0.48 | 10 | 1008.5 |
| 20260505211014 | 10 | 0 | 0.0 | 0.0 | 0.13 | 0.46 | 0.46 | 10 | 1008.6 |
| 20260505210015 | 9 | 0 | 0.0 | 0.0 | 0.13 | 0.43 | 0.43 | 10 | 1008.6 |
| 20260505205015 | 10 | 0 | 0.0 | 0.0 | 0.13 | 0.43 | 0.43 | 10 | 1008.6 |
| 20260505204014 | 10 | 0 | 0.0 | 0.0 | 0.13 | 0.41 | 0.41 | 10 | 1008.7 |
| 20260505202016 | 10 | 0 | 0.0 | 0.0 | 0.13 | 0.36 | 0.36 | 10 | 1008.6 |
| 20260505201021 | 10 | 0 | 0.0 | 0.0 | 0.10 | 0.33 | 0.33 | 10 | 1008.5 |
| 20260505195015 | 10 | 0 | 0.0 | 0.0 | 0.13 | 0.33 | 0.33 | 10 | 1008.5 |
| 20260505194015 | 10 | 0 | 0.0 | 0.0 | 0.10 | 0.30 | 0.30 | 10 | 1008.4 |
| 20260505193014 | 10 | 0 | 0.0 | 0.0 | 0.13 | 0.28 | 0.28 | 10 | 1008.4 |
| 20260505192015 | 10 | 0 | 0.0 | 0.0 | 0.13 | 0.25 | 0.25 | 10 | 1008.4 |
| 20260505191015 | 10 | 0 | 0.0 | 0.0 | 0.15 | 0.23 | 0.23 | 10 | 1008.3 |
| 20260505190014 | 10 | 0 | 0.0 | 0.0 | 0.15 | 0.23 | 0.23 | 10 | 1008.3 |
| 20260505185014 | 10 | 0 | 0.0 | 0.0 | 0.15 | 0.23 | 0.23 | 10 | 1008.3 |
| 20260505184014 | 10 | 0 | 0.0 | 0.0 | 0.15 | 0.20 | 0.20 | 10 | 1008.3 |
| 20260505183013 | 10 | 0 | 0.0 | 0.0 | 0.15 | 0.20 | 0.20 | 10 | 1008.3 |
| 20260505182013 | 10 | 0 | 0.0 | 0.0 | 0.10 | 0.15 | 0.15 | 10 | 1008.3 |
| 20260505181013 | 10 | 0 | 0.0 | 0.0 | 0.08 | 0.15 | 0.15 | 10 | 1008.3 |
| 20260505180015 | 10 | 0 | 0.0 | 0.0 | 0.05 | 0.10 | 0.10 | 10 | 1008.4 |
| 20260505175014 | 10 | 0 | 0.0 | 0.0 | 0.03 | 0.08 | 0.08 | 10 | 1008.4 |
| 20260505174014 | 10 | 0 | 0.0 | 0.0 | 0.00 | 0.05 | 0.05 | 10 | 1008.4 |
| 20260505173014 | 10 | 0 | 0.0 | 0.0 | 0.00 | 0.05 | 0.05 | 99 | 1008.4 |
| 20260505172013 | 10 | 0 | 0.0 | 0.0 | 0.00 | 0.05 | 0.05 | 99 | 1008.5 |
| 20260505171015 | 10 | 0 | 0.0 | 0.0 | 0.00 | 0.05 | 0.05 | 99 | 1008.5 |
| 20260505170014 | 10 | 0 | 0.0 | 0.0 | 0.00 | 0.05 | 0.05 | 99 | 1008.5 |
| 20260505165013 | 10 | 0 | 0.0 | 0.0 | 0.00 | 0.05 | 0.05 | 99 | 1008.5 |
| 20260505164014 | 11 | 0 | 0.0 | 0.0 | 0.00 | 0.05 | 0.05 | 98 | 1008.5 |
| 20260505163013 | 11 | 0 | 0.0 | 0.0 | 0.00 | 0.05 | 0.05 | 98 | 1008.5 |
| 20260505162013 | 11 | 0 | 0.0 | 0.0 | 0.00 | 0.05 | 0.05 | 98 | 1008.5 |
| 20260505161013 | 11 | 0 | 0.0 | 0.0 | 0.00 | 0.05 | 0.05 | 98 | 1008.6 |
| 20260505153013 | 11 | 0 | 0.0 | 0.0 | 0.00 | 0.08 | 0.05 | 98 | 1008.6 |
| 20260505152014 | 11 | 0 | 0.0 | 0.0 | 0.00 | 0.10 | 0.05 | 98 | 1008.7 |
| 20260505151013 | 11 | 0 | 0.0 | 0.0 | 0.00 | 0.13 | 0.05 | 99 | 1008.7 |
| 20260505125013 | 11 | 0 | 0.0 | 0.0 | 0.03 | 0.33 | 0.05 | 10 | 1009.3 |
| 20260505124013 | 11 | 0 | 0.0 | 0.0 | 0.03 | 0.33 | 0.05 | 10 | 1009.3 |
| 20260505123013 | 11 | 0 | 0.0 | 0.0 | 0.03 | 0.33 | 0.05 | 10 | 1009.3 |
| 20260505122013 | 11 | 0 | 0.0 | 0.0 | 0.03 | 0.33 | 0.05 | 10 | 1009.4 |
| 20260505121012 | 12 | 0 | 0.0 | 0.0 | 0.03 | 0.33 | 0.05 | 10 | 1009.4 |
| 20260505115012 | 12 | 0 | 0.0 | 0.0 | 0.00 | 0.30 | 0.03 | 99 | 1009.4 |
| 20260505114012 | 12 | 0 | 0.0 | 0.0 | 0.00 | 0.30 | 0.03 | 99 | 1009.4 |
| 20260505113012 | 12 | 0 | 0.0 | 0.0 | 0.00 | 0.30 | 0.03 | 99 | 1009.5 |
| 20260505112013 | 12 | 0 | 0.0 | 0.0 | 0.00 | 0.30 | 0.03 | 99 | 1009.5 |
| 20260505102014 | 12 | 0 | 0.0 | 0.0 | 0.03 | 0.30 | 0.03 | 10 | 1009.5 |
| 20260505101013 | 12 | 0 | 0.0 | 0.0 | 0.03 | 0.30 | 0.03 | 10 | 1009.5 |
| 20260505100013 | 13 | 0 | 0.0 | 0.0 | 0.03 | 0.30 | 0.03 | 10 | 1009.5 |
| 20260505095013 | 13 | 0 | 0.0 | 0.0 | 0.03 | 0.30 | 0.03 | 10 | 1009.4 |
| 20260505094013 | 13 | 0 | 0.0 | 0.0 | 0.03 | 0.30 | 0.03 | 10 | 1009.4 |
| 20260505093013 | 13 | 0 | 0.0 | 0.0 | 0.03 | 0.30 | 0.03 | 10 | 1009.4 |
| 20260505092013 | 13 | 0 | 0.0 | 0.0 | 0.03 | 0.30 | 0.03 | 10 | 1009.5 |
| 20260505091013 | 13 | 0 | 0.0 | 0.0 | 0.00 | 0.28 | 0.00 | 10 | 1009.6 |
| 20260505090013 | 13 | 0 | 0.0 | 0.0 | 0.00 | 0.28 | 0.00 | 10 | 1009.6 |
| 20260505084013 | 13 | 0 | 0.0 | 0.0 | 0.00 | 0.28 | 0.00 | 10 | 1009.7 |
| 20260505083013 | 13 | 0 | 0.0 | 0.0 | 0.00 | 0.28 | 0.00 | 10 | 1009.6 |
| 20260505082013 | 13 | 0 | 0.0 | 0.0 | 0.00 | 0.28 | 0.00 | 10 | 1009.6 |
| 20260505081012 | 13 | 0 | 0.0 | 0.0 | 0.00 | 0.28 | 0.00 | 10 | 1009.7 |
| 20260505080013 | 13 | 0 | 0.0 | 0.0 | 0.00 | 0.28 | 0.00 | 10 | 1009.7 |
| 20260505075013 | 13 | 0 | 0.0 | 0.0 | 0.00 | 0.28 | 0.00 | 10 | 1009.8 |
| 20260505072013 | 12 | 0 | 0.0 | 0.0 | 0.00 | 0.28 | 0.00 | 10 | 1009.8 |
| 20260505071013 | 12 | 0 | 0.0 | 0.0 | 0.00 | 0.28 | 0.00 | 10 | 1009.9 |
| 20260505070013 | 12 | 0 | 0.0 | 0.0 | 0.00 | 0.28 | 0.00 | 10 | 1009.9 |
| 20260505065012 | 12 | 0 | 0.0 | 0.0 | 0.00 | 0.28 | 0.00 | 10 | 1009.9 |
| 20260505063013 | 12 | 0 | 0.0 | 0.0 | 0.00 | 0.28 | 0.00 | 10 | 1010.0 |
| 20260505062013 | 12 | 0 | 0.0 | 0.0 | 0.00 | 0.28 | 0.00 | 10 | 1010.1 |
| 20260505061013 | 12 | 0 | 0.0 | 0.0 | 0.00 | 0.28 | 0.00 | 10 | 1010.1 |
| 20260505060013 | 12 | 0 | 0.0 | 0.0 | 0.00 | 0.28 | 0.00 | 10 | 1010.1 |
| 20260505054013 | 11 | 0 | 0.0 | 0.0 | 0.00 | 0.28 | 0.00 | 10 | 1010.1 |
| 20260505053013 | 11 | 0 | 0.0 | 0.0 | 0.00 | 0.30 | 0.00 | 10 | 1010.1 |
| 20260505052014 | 11 | 0 | 0.0 | 0.0 | 0.00 | 0.30 | 0.00 | 10 | 1010.1 |
| 20260505051013 | 11 | 0 | 0.0 | 0.0 | 0.00 | 0.30 | 0.00 | 10 | 1010.0 |
| 20260505041013 | 11 | 0 | 0.0 | 0.0 | 0.00 | 0.30 | 0.00 | 10 | 1010.0 |
| 20260505040013 | 11 | 0 | 0.0 | 0.0 | 0.00 | 0.30 | 0.00 | 10 | 1010.1 |
| 20260505035013 | 11 | 0 | 0.0 | 0.0 | 0.00 | 0.30 | 0.00 | 10 | 1010.2 |
| 20260505034013 | 11 | 0 | 0.0 | 0.0 | 0.00 | 0.30 | 0.00 | 10 | 1010.2 |
| 20260505033013 | 11 | 0 | 0.0 | 0.0 | 0.00 | 0.30 | 0.00 | 10 | 1010.2 |
| 20260505032013 | 11 | 0 | 0.0 | 0.0 | 0.00 | 0.30 | 0.00 | 10 | 1010.4 |
| 20260505031013 | 11 | 0 | 0.0 | 0.0 | 0.00 | 0.30 | 0.00 | 10 | 1010.4 |
| 20260505030013 | 11 | 0 | 0.0 | 0.0 | 0.00 | 0.30 | 0.00 | 10 | 1010.5 |
| 20260505025013 | 11 | 0 | 0.0 | 0.0 | 0.00 | 0.30 | 0.00 | 10 | 1010.6 |
| 20260505024013 | 11 | 0 | 0.0 | 0.0 | 0.00 | 0.30 | 0.00 | 10 | 1010.6 |
| 20260505023013 | 11 | 0 | 0.0 | 0.0 | 0.00 | 0.30 | 0.00 | 10 | 1010.7 |
| 20260505022013 | 11 | 0 | 0.0 | 0.0 | 0.00 | 0.30 | 0.00 | 10 | 1010.7 |
| 20260505021013 | 11 | 0 | 0.0 | 0.0 | 0.00 | 0.30 | 0.00 | 10 | 1010.8 |
| 20260505020013 | 11 | 0 | 0.0 | 0.0 | 0.00 | 0.30 | 0.00 | 10 | 1010.8 |
| 20260505015014 | 11 | 0 | 0.0 | 0.0 | 0.00 | 0.30 | 0.00 | 10 | 1010.9 |
| 20260505014013 | 11 | 0 | 0.0 | 0.0 | 0.00 | 0.30 | 0.00 | 10 | 1010.9 |